Miscellaneous Local Product
Issued by NWS Hastings, NE

Home | Current Version | Previous Version | Text Only | Print | Product List | Glossary Off
Versions: 1 2 3 4 5 6 7 8 9 10 11 12 13 14 15 16 17 18 19 20 21 22 23 24 25 26 27 28 29 30 31 32 33 34 35 36 37 38 39 40 41 42 43 44 45 46 47 48 49 50

000
AXUS43 KGID 171502
MISGRI

GID CWA HOURLY WEATHER ROUNDUP
NATIONAL WEATHER SERVICE HASTINGS NE
900 AM CST WED JAN 17 2018

NOTE: "FAIR" INDICATES FEW OR NO CLOUDS BELOW 12,000 FEET WITH NO
SIGNIFICANT WEATHER AND/OR OBSTRUCTIONS TO VISIBILITY.

...SOUTH CENTRAL NEBRASKA...

CITY           SKY/WX    TMP DP  RH WIND       PRES   REMARKS
GRAND ISLAND   CLOUDY    11   1  64 SW14      30.41S WCI  -5
KEARNEY        CLOUDY     7  -1  70 SW10      30.41R WCI  -8
HASTINGS       CLOUDY     8  -1  66 SW12      30.43S WCI  -7
ORD            CLEAR     11   2  67 CALM      30.35R
YORK           CLOUDY     7   1  78 SW15      30.45S WCI -11
AURORA         CLOUDY    10   1  69 SW13      30.43S WCI  -6
LEXINGTON      CLEAR     11   1  63 CALM      30.37S
HOLDREGE       CLOUDY     9   1  71 S9        30.39S WCI  -5
HEBRON         CLOUDY     8   2  76 SW5       30.52S WCI   0

...NEBRASKA PANHANDLE...

CITY           SKY/WX    TMP DP  RH WIND       PRES   REMARKS
CHADRON        CLEAR     10   4  76 SW9       30.25R WCI  -3
ALLIANCE       CLEAR      3  -2  79 CALM      30.24R
SCOTTSBLUFF    CLEAR      8   3  80 NW13      30.26R WCI  -8
SIDNEY         CLEAR     20   7  57 W8        30.24R WCI  10

...WESTERN AND NORTH CENTRAL NEBRASKA...

CITY           SKY/WX    TMP DP  RH WIND       PRES   REMARKS
VALENTINE      CLEAR     10   3  73 SW7       30.25R WCI  -1
AINSWORTH      CLEAR     13   4  67 SW9       30.26R WCI   1
ONEILL         CLEAR     13   3  66 SW12      30.30S WCI  -1
BROKEN BOW     CLEAR      9  -1  64 CALM      30.32S
IMPERIAL       CLEAR      7   1  76 N5        30.30R WCI  -2
NORTH PLATTE   CLEAR      8   1  73 CALM      30.33S
MCCOOK         CLEAR      5   1  83 CALM      30.36S

...EASTERN NEBRASKA...

CITY           SKY/WX    TMP DP  RH WIND       PRES   REMARKS
NORFOLK        CLOUDY    10   1  67 SW13      30.37F WCI  -5
SO SIOUX CITY  CLOUDY    10   3  73 S6        30.42F WCI   0
TEKAMAH        CLOUDY    10   2  69 S15       30.48F WCI  -7
COLUMBUS       CLOUDY    13   3  64 SW12      30.45S WCI  -1
ALBION         CLOUDY    10   2  70 S7        30.38S WCI   0
OMAHA EPPLEY   CLOUDY     5   0  79 SE10      30.54S WCI -10
OFFUTT AFB     CLOUDY     3  -1  83 SE5       30.54S WCI  -7
MILLARD        CLOUDY    11   5  77 S5        30.53S WCI   2
LINCOLN        CLOUDY    10   2  69 SW8       30.53S WCI  -2
NEBRASKA CITY  MOSUNNY    8   3  83 SW8       30.56R WCI  -5
BEATRICE       CLOUDY     6   1  80 S7        30.54F WCI  -6
FALLS CITY     CLOUDY     2  -1  88 SE3       30.60R

...NORTHERN KANSAS...

CITY           SKY/WX    TMP DP  RH WIND       PRES   REMARKS
GOODLAND       CLEAR     19   4  51 SW9       30.27S WCI   8
HILL CITY      CLOUDY    10   0  63 S6        30.43S WCI   0
NORTON         SUNNY     10  -4  52 S7        30.39R WCI   0
PHILLIPSBURG   CLEAR      7   1  78 CALM      30.47R
SMITH CENTER     N/A      7   1  78 SE3       30.49S
BELOIT         SUNNY      5   1  85 CALM      30.54S
HAYS           CLOUDY     9   4  80 SW5       30.48S WCI   1
RUSSELL        CLOUDY     9   1  70 S13       30.48S WCI  -7
CONCORDIA      CLOUDY     8   2  76 SW12      30.53R WCI  -7
SALINA         CLOUDY     8   3  80 S8        30.59R WCI  -4
TOPEKA         CLOUDY     2  -2  83 CALM      30.66R



USA.gov is the U.S. government's official web portal to all federal, state and local government web resources and services.